Regional Weather Roundup
Issued by NWS Cleveland, OH

Home | Current Version | Previous Version | Graphics & Text | Print | Product List | Glossary On
Versions: 1 2 3 4 5 6 7 8 9 10 11 12 13 14 15 16 17 18 19 20 21 22 23 24 25 26 27 28 29 30 31 32 33 34 35 36 37 38 39 40 41 42 43 44 45 46 47 48 49 50
000
ASUS41 KCLE 141512
RWRCLE
OHIO REGIONAL WEATHER ROUNDUP
NATIONAL WEATHER SERVICE WILMINGTON, OH
1000 AM EST THU DEC 14 2017

NOTE: "FAIR" INDICATES FEW OR NO CLOUDS BELOW 12,000 FEET WITH NO
SIGNIFICANT WEATHER AND/OR OBSTRUCTIONS TO VISIBILITY.

OHZ001>008-015>018-024>027-034-035-043-044-141600-
   NORTHWEST OHIO

CITY           SKY/WX    TMP DP  RH WIND       PRES   REMARKS
DEFIANCE       FAIR      14   6  70 NW6       30.04R WCI   5
FINDLAY        FAIR      18  10  71 NW10      30.00R WCI   6
TOLEDO EXPRESS FAIR      14   8  77 NW7       30.02R WCI   4
TOLEDO EXEC    FAIR      16   9  74 NW7       30.02R WCI   6
LIMA           PTSUNNY   18  13  80 N7        30.00R WCI   9
$$

OHZ009>014-019>023-028>033-038-089-141600-
   NORTHEAST OHIO

CITY           SKY/WX    TMP DP  RH WIND       PRES   REMARKS
CLE-HOPKINS    FLURRIES  24  17  74 NW12      29.98R WCI  13
CLE-LAKEFRONT  FLURRIES  25  16  68 NW14      29.96R WCI  13
CUY CO. ARPT   PTSUNNY   25  19  80 NW12      29.94R WCI  14
LORAIN-ELYRIA  CLOUDY    23  13  65 VRB5      29.96R WCI  17
ASHTABULA      CLOUDY    20  12  71 N7        29.93R WCI  11
AKRON-CANTON   LGT SNOW  22  15  75 N6        29.92R WCI  14
WOOSTER        FAIR      21  13  71 NW9       29.94R WCI  11
MANSFIELD      LGT SNOW  20  16  84 NW7       29.95R FOG     WCI  11
YOUNGSTOWN     FLURRIES  21  12  68 NW8       29.90R WCI  11
$$

OHZ042-051>053-060>062-070>072-077>081-141600-
  SOUTHWEST OHIO

CITY           SKY/WX    TMP DP  RH WIND       PRES   REMARKS
CINC-COVINGTON CLOUDY    25  17  72 N10       29.98R WCI  15
CINC-LUNKEN    CLOUDY    27  18  69 N8        30.03R WCI  19
HAMILTON       CLOUDY    25  17  72 N9        30.03R WCI  15
DAYTON         CLOUDY    20  16  84 N8        30.00R WCI  10
WRIGHT-PAT AFB CLOUDY    22  15  76 N7        30.00R WCI  13
DAYTON GENERAL CLOUDY    23  15  71 NE7       29.98R WCI  15
WILMINGTON     CLOUDY    22  17  81 NE10      29.97R WCI  11
$$

OHZ036-037-039>041-045>050-054>059-063>069-073>076-082>088-141600-
  CENTRAL AND SOUTHEAST OHIO

CITY           SKY/WX    TMP DP  RH WIND       PRES   REMARKS
COLUMBUS       FLURRIES  24  17  74 N5        29.99R WCI  18
OSU AIRPORT    LGT SNOW  22  17  81 NW8       29.99R WCI  12
BOLTON FIELD   FLURRIES  23  18  80 NW5       30.00R WCI  17
RICKENBACK AFB FLURRIES  24  16  71 N7        30.00R WCI  16
NEWARK         CLOUDY    25  15  66 N7        29.97R WCI  17
MARION         NOT AVBL
LANCASTER      CLOUDY    24  16  71 NW7       29.99R WCI  16
ZANESVILLE     CLOUDY    26  15  63 N3        29.97R
NEW PHILLY     LGT SNOW  25  17  72 NW10      29.95R WCI  15
$$




USA.gov is the U.S. government's official web portal to all federal, state and local government web resources and services.